Location: Vanderbilt Planetarium & Observatory
(40.9052°N, 73.3671°W)
Time: 09:31:38
(UTC-04:00)

Daily predictions for brighter satellites

Satellite Brightness Start Highest point End
(mag) Time Altitude Azimuth Time Altitude Azimuth Time Altitude Azimuth
Meteor 1-25 Rocket 4.4 20:07:20 10° S 20:13:04 61° E 20:18:48 10° NNE
Cosmos 1633 3.4 20:12:22 10° SSE 20:15:30 29° E 20:18:41 10° NNE
DELTA 2 R/B(2) 4.0 20:15:15 10° W 20:17:43 40° SSW 20:19:17 10° ESE
Meteor 1-18 Rocket 4.4 20:12:22 10° N 20:18:15 64° E 20:24:08 10° SSE
SJ-6B 3.9 20:15:38 10° S 20:19:31 49° W 20:23:31 10° NNW
Cosmos 2360 4.5 20:16:48 10° S 20:22:12 46° ESE 20:27:37 10° NE
Cosmos 839 Rocket 4.4 20:19:01 10° S 20:24:52 40° ESE 20:30:34 10° NE
Cosmos 1812 2.7 20:21:19 10° N 20:25:13 89° ENE 20:29:06 10° S
Helios 1B rocket 3.9 20:24:06 10° NE 20:27:00 19° E 20:29:53 10° SE
Cosmos 1939 Rocket 3.6 20:24:40 10° SE 20:28:21 35° ENE 20:31:58 10° N
Cosmos 2297 Rocket 3.4 20:24:53 10° NW 20:30:13 43° WSW 20:35:31 10° S
Okean 2 Rocket 3.1 20:28:06 10° S 20:32:31 63° E 20:36:59 10° NNE
Cosmos 1452 Rocket 3.9 20:29:23 10° S 20:34:21 42° ESE 20:39:19 10° NNE
Okean 1 3.3 20:35:33 10° N 20:39:30 65° E 20:43:26 10° SSE
ATLAS 2AS CENTAUR R/B 4.0 20:36:44 10° SSE 20:42:04 21° ESE 20:47:36 10° ENE
Cosmos 1536 4.3 20:40:16 13° SE 20:42:31 19° E 20:45:24 10° NE
Cosmos 407 Rocket 3.6 20:38:55 10° NNW 20:44:18 88° WSW 20:49:37 10° SSE
Cosmos 1190 Rocket 4.2 20:39:44 10° NNW 20:45:00 78° WSW 20:50:17 10° SSE
Lacrosse 5 rocket 2.0 20:42:51 10° NNW 20:46:18 37° NE 20:49:00 15° ESE
Resurs 1-3 4.1 20:43:40 10° S 20:47:59 62° W 20:52:22 10° NNW
NOSS 3-1 (A) 3.4 20:42:30 10° SW 20:48:13 88° WNW 20:54:42 10° NE
Cosmos 44 3.5 20:45:58 10° NNW 20:50:15 49° NE 20:53:33 17° SE
DELTA 2 R/B (1) 3.6 20:45:18 10° W 20:50:54 72° S 20:55:26 16° ESE
Cosmos 2322 Rocket 2.8 20:49:29 10° SSE 20:54:33 34° ESE 20:59:39 10° NE
Helios 1A 3.3 20:52:05 14° SE 20:55:32 49° ENE 20:59:39 10° N
Cosmos 2263 Rocket 3.4 20:54:21 10° N 20:59:12 28° NE 21:02:30 17° ESE
Cosmos 676 Rocket 4.0 20:55:31 10° NNW 21:00:51 86° ENE 21:05:47 12° SSE
GPS 2-05 Rocket1 3.9 20:59:01 10° SW 21:01:49 25° S 21:02:34 23° SE
S3M 4.0 20:56:34 10° N 21:02:47 68° E 21:09:04 10° SSE
SL-16 R/B 2.6 20:57:44 10° S 21:02:59 40° ESE 21:08:14 10° NE
ARGOS 4.2 21:00:20 18° ESE 21:03:13 28° ENE 21:07:43 10° N
Cosmos 1553 Rocket 3.9 21:01:00 10° N 21:07:12 80° E 21:13:18 10° S
SAR-Lupe-4 4.4 21:07:37 26° ESE 21:08:53 34° ENE 21:12:11 10° N
Abrixas rocket 3.9 21:08:12 10° W 21:11:12 32° NNW 21:14:13 10° NE
Resurs 01 Rocket 3.4 21:07:45 10° SSW 21:11:42 31° W 21:15:40 10° NW
Meteor 1-13 Rocket 4.3 21:07:53 10° N 21:13:52 78° E 21:19:05 14° SSE
MINOTAUR R/B 4.3 21:12:09 10° NNW 21:14:54 62° ENE 21:15:27 47° ESE
Cosmos 1023 Rocket 4.4 21:10:28 10° NNW 21:15:44 83° ENE 21:19:28 20° SSE
Cosmos 2266 Rocket 4.1 21:10:08 10° SSE 21:15:57 51° E 21:21:46 10° NNE
CZ-4B DEB 2.5 21:18:17 46° SE 21:18:52 58° ENE 21:21:42 10° N
Terra 4.0 21:18:59 10° ENE 21:19:54 11° ENE 21:21:05 10° NE
Atlas Centaur 2 3.4 21:15:24 10° WSW 21:22:10 34° S 21:24:56 25° SE
SeaSat 1 3.9 21:18:08 10° NNE 21:22:44 40° WNW 21:27:19 10° SW
Meteor 1-5 Rocket 4.4 21:20:23 21° SSE 21:23:40 45° E 21:28:42 10° NNE
CZ-4C R/B 4.2 21:17:11 10° NW 21:23:44 35° WSW 21:30:47 10° S
H-2A R/B 3.1 21:22:24 23° E 21:23:59 27° ENE 21:28:11 10° N
Cosmos 1954 Rocket 4.2 21:19:23 10° NNW 21:24:42 71° WSW 21:28:44 18° S
Cosmos 1140 Rocket 3.5 21:19:57 10° NNW 21:25:13 83° WSW 21:28:44 21° SSE
Okean 1 Rocket 3.4 21:24:16 32° SE 21:25:37 42° E 21:29:44 10° NNE
SAR-Lupe-1 4.4 21:25:12 39° ESE 21:25:56 46° ENE 21:29:23 10° N
NOSS 2-3 (C) 4.1 21:21:49 10° S 21:26:11 44° ESE 21:31:11 10° NE
Cosmos 2360 Rocket 3.1 21:30:47 27° ESE 21:30:47 27° ESE 21:35:21 10° NE
Meteor 2-4 Rocket 3.6 21:26:12 10° N 21:31:44 78° E 21:35:12 24° SSE
Cosmos 1980 Rocket 3.5 21:26:28 10° SW 21:31:45 41° WNW 21:37:02 10° N
Meteor 1-29 2.8 21:28:50 10° NNE 21:32:17 87° ESE 21:33:54 29° SSW
Cosmos 2151 Rocket 4.2 21:29:19 10° SSW 21:33:37 56° W 21:37:57 10° N
Cosmos 44 Rocket 3.6 21:30:38 10° NW 21:35:18 58° WSW 21:37:44 27° S
Cosmos 1741 Rocket 4.0 21:30:09 10° NNW 21:35:22 65° ENE 21:37:32 35° SE
Cosmos 1300 Rocket 3.4 21:33:26 19° S 21:36:27 86° E 21:40:47 10° N
Cosmos 614 Rocket 4.0 21:32:49 10° NNW 21:37:55 74° WSW 21:40:45 27° S
Tiangong 1 1.3 21:35:52 10° W 21:38:33 54° N 21:38:33 54° N
BREEZE-M DEB (TANK) 3.2 21:36:38 10° WSW 21:39:49 75° NNW 21:49:55 10° ENE
MetOp-B 4.1 21:41:11 33° SSE 21:43:38 74° ENE 21:48:59 10° N
NOAA 11 4.2 21:43:07 26° S 21:46:20 82° WSW 21:51:52 10° NNW
YAOGAN 6 4.2 21:44:07 16° SSW 21:46:21 31° W 21:49:34 10° NNW
SL-08 RB Rocket 3.9 21:47:21 45° ESE 21:48:12 53° ENE 21:52:39 10° N
ERS-1 Rocket 2.9 21:45:59 32° S 21:48:22 84° WSW 21:53:26 10° NNW
USA 245 4.1 21:46:36 39° SE 21:48:32 63° ENE 21:53:17 10° N
ERBS 3.9 21:45:45 10° WSW 21:49:01 37° NW 21:52:18 10° NNE
SPOT 5 3.1 21:48:22 43° ESE 21:49:36 55° ENE 21:54:17 10° N
Meteor 1-11 Rocket 4.3 21:44:26 10° SSW 21:50:16 61° WNW 21:55:59 10° N
Cosmos 1025 Rocket 3.1 21:47:54 10° N 21:52:07 54° E 21:52:19 53° E
Lacrosse 5 4.1 22:02:47 12° ENE 22:02:47 12° ENE 22:03:10 10° ENE
H-2A R/B 4.3 21:59:25 13° NE 21:59:25 13° NE 22:00:51 10° NE
Helios 1B rocket 4.1 21:58:40 10° N 22:02:23 34° WNW 22:06:05 10° SW
Cosmos 220 Rocket 4.0 22:00:00 10° NNW 22:04:15 62° ENE 22:04:16 62° ENE
NOSS 2-3 (D) 3.8 22:01:04 10° SW 22:05:44 87° NW 22:11:08 10° NE
ATLAS 3B R/B 3.3 21:59:45 10° NNW 22:06:09 42° NE 22:08:18 33° E
Cosmos 1110 Rocket 3.8 22:12:57 66° SE 22:13:17 68° ESE 22:18:26 10° NNE
Cosmos 1892 Rocket 4.3 22:15:46 10° N 22:19:16 42° NE 22:19:16 42° NE
SPOT 1/Viking Rocket 3.4 22:24:07 71° SSE 22:24:44 89° W 22:30:00 10° NNW
Lacrosse 5 rocket 3.0 22:22:15 10° WNW 22:24:42 23° WSW 22:24:42 23° WSW
Cosmos 1331 Rocket 3.8 22:31:13 86° SSE 22:31:19 87° ESE 22:36:34 10° NNE
Cosmos 1244 Rocket 4.4 22:29:41 51° S 22:31:23 87° W 22:37:34 10° N
ATLAS 2AS CENTAUR R/B 3.0 22:24:23 10° SW 22:32:04 85° NW 22:40:15 10° NE
Nadezhda 1 Rocket 4.4 22:27:55 10° N 22:33:55 45° ENE 22:34:03 45° E
Cosmos 2278 Rocket 4.2 22:32:14 10° N 22:35:40 16° NE 22:36:33 16° ENE
Cosmos 2322 Rocket 3.7 22:33:22 10° WSW 22:38:32 35° WNW 22:43:45 10° N
Landsat 7 3.9 22:42:03 72° NNW 22:42:03 72° NNW 22:46:22 10° NNW
ARGOS 4.2 22:41:52 32° SW 22:43:17 38° W 22:48:16 10° NNW
Cosmos 2263 Rocket 2.9 22:37:55 10° NW 22:43:19 44° WSW 22:44:12 41° SW
SL-16 R/B 4.0 22:42:13 10° WSW 22:47:09 30° NW 22:52:08 10° N
Cosmos 1455 Rocket 4.3 22:51:37 36° NNE 22:51:37 36° NNE 22:54:19 10° N
Cosmos 1844 Rocket 3.2 22:47:20 10° NNW 22:52:30 48° NE 22:52:30 48° NE
Cosmos 2322 3.7 22:52:32 75° WSW 22:52:52 78° WNW 22:58:34 10° NNE
Terra 2.3 22:57:53 57° NNW 22:57:53 57° NNW 23:01:41 10° NNW
SL-08 R/B 4.4 22:56:59 75° SSW 22:57:32 85° W 23:03:55 10° N
COSMOS 2428 3.4 23:00:05 43° NE 23:00:05 43° NE 23:04:01 10° NNE
Cosmos 2219 Rocket 3.8 23:05:32 24° NE 23:05:32 24° NE 23:07:58 10° NE
H-2A R/B 3.1 23:03:03 35° WSW 23:03:16 35° W 23:07:54 10° NNW
Atlas Centaur 2 4.3 23:05:11 10° WSW 23:07:34 18° SW 23:07:34 18° SW
Cosmos 2333 Rocket 3.9 23:15:38 22° NE 23:15:38 22° NE 23:17:49 10° NE
Cosmos 2360 Rocket 3.2 23:12:28 31° WSW 23:14:28 43° WNW 23:19:50 10° N
Cosmos 1844 4.3 23:09:20 10° NNW 23:14:05 51° NNE 23:14:05 51° NNE
Cosmos 1745 Rocket 4.2 23:25:32 62° W 23:25:32 62° W 23:31:38 10° N
USA 238 DEB 3.8 23:22:22 10° NW 23:29:14 72° WSW 23:29:14 72° WSW
USA 238 3.7 23:22:28 10° NW 23:29:21 73° WSW 23:29:21 73° WSW
NOSS 3-2 (A) 4.0 23:23:13 10° NNW 23:30:44 69° NE 23:31:22 66° E
H-2A R/B 4.0 23:36:33 27° NNW 23:36:33 27° NNW 23:38:40 10° NNW
Lacrosse 5 3.2 23:41:50 37° NNW 23:41:50 37° NNW 23:46:08 10° NNE
Cosmos 2237 Rocket 3.9 23:44:54 24° NE 23:44:54 24° NE 23:47:09 10° NE
